Regional Weather Roundup
Issued by NWS

Home | Current Version | Previous Version | Text Only | Print | Product List | Glossary On
Versions: 1 2 3 4 5 6 7 8 9 10 11 12 13 14 15 16 17 18 19 20 21 22 23 24 25 26 27 28 29 30 31 32 33 34 35 36 37 38 39 40 41 42 43 44 45 46 47 48 49 50
000
ASUS44 KMEG 230510
RWRTN
TENNESSEE HOURLY STATE WEATHER ROUNDUP
NATIONAL WEATHER SERVICE MEMPHIS TN
1100 PM CST MON DEC 22 2014

TNZ002-004-019-021-049-052-054-088>092-230600-
WEST TENNESSEE

CITY           SKY/WX    TMP DP  RH WIND       PRES   REMARKS
MEMPHIS INTL   CLOUDY    56  54  93 SW3       29.65F
NWS MEMPHIS      N/A     55 N/A N/A MISG        N/A
JACKSON        LGT RAIN  56  54  93 W7        29.67R
DYERSBURG      CLOUDY    55  43  62 CALM      29.67R
UNION CITY     CLOUDY    54  52  94 S7        29.64S
PARIS          CLOUDY    52  52 100 S5        29.66F
HUNTINGDON     CLOUDY    52  52 100 S6        29.67S
LEXINGTON      CLOUDY    54  54 100 S7        29.66F
SAVANNAH       CLOUDY    55  55 100 S9        29.68F
$$

TNZ008-025-027-028-033-062-065-066-230600-
NORTH MIDDLE TENNESSEE

CITY           SKY/WX    TMP DP  RH WIND       PRES   REMARKS
NASHVILLE      CLOUDY    52  50  93 S13       29.73F
CLARKSVILLE    CLOUDY    53  51  93 S9        29.68S
SMYRNA         CLOUDY    52  49  89 S12       29.75F
COOKEVILLE     CLOUDY    52  48  87 S10       29.77S
CROSSVILLE     CLOUDY    50  46  86 S10       29.82S
$$

TNZ061-075-076-078-094-096-097-230600-
SOUTH MIDDLE TENNESSEE

CITY           SKY/WX    TMP DP  RH WIND       PRES   REMARKS
FAYETTEVILLE   CLOUDY    48  46  93 MISG      29.76F
TULLAHOMA      CLOUDY    48  46  93 SE9       29.78S
WINCHESTER     CLOUDY    48  46  93 SE15      29.79F
MCMINNVILLE    CLOUDY    52  52 100 CALM      29.77S
COLUMBIA       CLOUDY   N/A N/A N/A S8        29.70F
SHELBYVILLE    CLOUDY    52  50  93 SE12      29.76F
$$

TNZ017-018-042-046-047-230600-
NORTHEAST TENNESSEE

CITY           SKY/WX    TMP DP  RH WIND       PRES   REMARKS
TRI CITIES     CLOUDY    46  40  79 E5        29.86F
ELIZABETHTON   MOCLDY    54  46  76 E7        29.86S
$$

TNZ012-013-036-069-073-074-230600-
CENTRAL EAST TENNESSEE

CITY           SKY/WX    TMP DP  RH WIND       PRES   REMARKS
KNOXVILLE      LGT RAIN  48  47  96 CALM      29.85R FOG
OAK RIDGE      CLOUDY    49  48  97 W3        29.88R
GATLINBURG     CLOUDY    46  45  93 CALM      29.84R
MORRISTOWN     MOCLDY    48  48 100 E6        29.85R
$$

TNZ083-085-099-230600-
SOUTHEAST TENNESSEE

CITY           SKY/WX    TMP DP  RH WIND       PRES   REMARKS
CHATTANOOGA    CLOUDY    47  45  93 S6        29.87S
$$

SKY/WX REPORTED AS FAIR MEANS FEW OR NO CLOUDS BELOW
12 THOUSAND FEET.




USA.gov is the U.S. government's official web portal to all federal, state and local government web resources and services.